Retour au catalogue

USA 103

ActifMilitaireHEO
NORAD 23097·PAYLOAD·🇺🇸 United States

Lancé May 3, 1994 depuis Cape Canaveral Space Force Station

Loading…

Prochains Passages (prochaines 24 heures)

TLE

FraisSource: Mike McCants

Époque: Sep 14, 2026, 22:47 UTC

1 23097U 94026A   26257.94958589  .00000052  00000-0  00000-0 0    01
2 23097  62.5982 133.6489 6786562 264.0324  21.2466  2.00604814  4572

Suivez USA 103 en temps réel avec AllMySat

Download on the App Store